Orbital Elements at Epoch 2459200.5 (2020-Dec-17.0) TDB
Reference: JPL 29 (heliocentric ecliptic J2000)
Element | Value | Uncertainty (1-sigma) | Units |
e | .1416121041851172 | 4.4253e-08 | |
a | 3.126526430580907 | 1.9574e-08 | au |
q | 2.683772443955961 | 1.3441e-07 | au |
i | 5.740274879623107 | 4.986e-06 | deg |
node | 161.2147135321554 | 4.4187e-05 | deg |
peri | 153.2552316979271 | 4.6931e-05 | deg |
M | 175.1991965074365 | 1.6644e-05 | deg |
tp | 2458217.799464285399 (2018-Apr-09.29946429) | 9.0959e-05 | TDB |
period | 2019.256936730529 5.53 | 1.8963e-05 5.192e-08 | d yr |
n | .1782834038856355 | 1.6743e-09 | deg/d |
Q | 3.569280417205853 | 2.2346e-08 | au |
|
| | Orbit Determination Parameters
Additional Information
|